AFR348 LFPG-KATL

Flight info

Callsign AFR348
Flight time N/A
Altitude 34000
Route ELCOB UT300 SENLO DCT JSY DCT LIZAD DCT ARKIL DCT LIMRI/M083F350 NATH JOOPY/N0478F360 N328A TUSKY DCT BOS/N0477F380 DCT BAF Q448 PTW J48 MOL DCT FLASK OZZZI1
Aircraft B77W/H-SDE1E2E3FGHIJ2J3J4J5M1RWXY/LB1D1

Departure

Time 2026-05-09 10:47
Airport Charles de Gaulle International Airport (LFPG)

Arrival

Time N/A
Airport Hartsfield Jackson Atlanta International Airport (KATL)
Time Latitude Longitude Altitude Speed Heading
2026-05-09 10:22 49.00186 2.56444 358 ft 0 kts 338°
2026-05-09 10:31 49.00192 2.56037 367 ft 0 kts 28°
2026-05-09 10:36 49.00180 2.56027 364 ft 4 kts 21°
2026-05-09 10:36 49.00155 2.56017 365 ft 4 kts
2026-05-09 10:36 49.00129 2.56017 364 ft 4 kts 356°
2026-05-09 10:36 49.00107 2.56019 365 ft 4 kts 345°
2026-05-09 10:37 49.00092 2.56028 365 ft 4 kts 302°
2026-05-09 10:37 49.00087 2.56055 358 ft 3 kts 266°
2026-05-09 10:37 49.00089 2.56093 367 ft 4 kts 265°
2026-05-09 10:37 49.00089 2.56102 366 ft 0 kts 265°
2026-05-09 10:39 49.00089 2.56101 366 ft 1 kts 265°
2026-05-09 10:39 49.00083 2.56019 365 ft 18 kts 263°
2026-05-09 10:40 49.00071 2.55739 358 ft 17 kts 269°
2026-05-09 10:40 49.00050 2.55629 365 ft 0 kts 248°
2026-05-09 10:41 49.00044 2.55559 361 ft 20 kts 278°
2026-05-09 10:41 49.00173 2.55441 365 ft 56 kts 346°
2026-05-09 10:42 49.00626 2.55253 362 ft 75 kts 343°
2026-05-09 10:42 49.01266 2.54987 364 ft 93 kts 347°
2026-05-09 10:42 49.01715 2.54864 366 ft 46 kts 346°
2026-05-09 10:42 49.01836 2.54720 367 ft 8 kts 279°
2026-05-09 10:43 49.01833 2.54572 359 ft 22 kts 267°
2026-05-09 10:43 49.01817 2.54256 366 ft 38 kts 265°
2026-05-09 10:43 49.01845 2.54107 367 ft 19 kts 301°
2026-05-09 10:43 49.01883 2.53802 362 ft 39 kts 264°
2026-05-09 10:44 49.01857 2.53379 362 ft 40 kts 264°
2026-05-09 10:44 49.01836 2.52965 359 ft 42 kts 265°
2026-05-09 10:44 49.01811 2.52487 364 ft 35 kts 266°
2026-05-09 10:44 49.01889 2.52277 366 ft 25 kts 283°
2026-05-09 10:45 49.01978 2.52111 361 ft 14 kts 354°
2026-05-09 10:46 49.01993 2.52110 363 ft 0 kts 355°
2026-05-09 10:46 49.02034 2.52105 359 ft 17 kts 358°
2026-05-09 10:46 49.02113 2.52185 364 ft 3 kts 71°
2026-05-09 10:46 49.02113 2.52194 366 ft 0 kts 86°
2026-05-09 10:47 49.02114 2.52218 363 ft 18 kts 86°
2026-05-09 10:47 49.02153 2.52931 365 ft 117 kts 85°
2026-05-09 10:47 49.02246 2.54622 513 ft 193 kts 85°
2026-05-09 10:47 49.02363 2.56571 1335 ft 187 kts 84°
2026-05-09 10:48 49.02500 2.58602 2566 ft 200 kts 86°
2026-05-09 10:48 49.02614 2.60909 2872 ft 234 kts 86°
2026-05-09 10:48 49.02732 2.63481 3545 ft 247 kts 86°
2026-05-09 10:48 49.02863 2.66114 4485 ft 250 kts 86°
2026-05-09 10:49 49.02996 2.68750 5299 ft 254 kts 85°
2026-05-09 10:49 49.03137 2.71518 6046 ft 262 kts 86°
2026-05-09 10:49 49.03280 2.74287 6749 ft 269 kts 85°
2026-05-09 10:49 49.03429 2.77178 7408 ft 278 kts 86°
2026-05-09 10:50 49.03583 2.80147 8171 ft 282 kts 85°
2026-05-09 10:50 49.03738 2.83169 8893 ft 290 kts 86°
2026-05-09 10:50 49.03893 2.86248 9737 ft 292 kts 86°
2026-05-09 10:50 49.04051 2.89368 10455 ft 299 kts 86°
2026-05-09 10:51 49.04211 2.92635 10775 ft 319 kts 89°
2026-05-09 10:51 49.03888 2.96017 10925 ft 338 kts 114°
2026-05-09 10:51 49.02524 2.99032 11143 ft 357 kts 140°
2026-05-09 10:51 49.00310 3.00834 11631 ft 366 kts 168°
2026-05-09 10:52 48.97774 3.01121 12282 ft 368 kts 182°
2026-05-09 10:52 48.95177 3.01053 12967 ft 376 kts 181°
2026-05-09 10:52 48.92593 3.00905 13736 ft 376 kts 190°
2026-05-09 10:52 48.90131 2.99545 14362 ft 381 kts 212°
2026-05-09 10:53 48.88122 2.96898 15161 ft 383 kts 231°
2026-05-09 10:53 48.86697 2.93459 15974 ft 386 kts 245°
2026-05-09 10:53 48.85982 2.89556 16693 ft 390 kts 261°
2026-05-09 10:53 48.85667 2.85421 17316 ft 397 kts 263°
2026-05-09 10:54 48.85401 2.81211 18050 ft 402 kts 263°
2026-05-09 10:54 48.85119 2.76976 18782 ft 404 kts 262°
2026-05-09 10:54 48.84805 2.72766 19454 ft 407 kts 262°
2026-05-09 10:54 48.84458 2.68472 20125 ft 410 kts 262°
2026-05-09 10:55 48.84064 2.64177 20704 ft 411 kts 257°
2026-05-09 10:55 48.83049 2.60107 21115 ft 416 kts 237°
2026-05-09 10:55 48.81344 2.56565 21674 ft 416 kts 233°
2026-05-09 10:55 48.79608 2.53011 22262 ft 420 kts 234°
2026-05-09 10:56 48.78118 2.49797 22803 ft 421 kts 238°
2026-05-09 10:56 48.76949 2.45702 23279 ft 428 kts 256°
2026-05-09 10:56 48.76627 2.41179 23837 ft 433 kts 270°
2026-05-09 10:56 48.76953 2.36645 24352 ft 434 kts 277°
2026-05-09 10:57 48.77436 2.32166 24820 ft 437 kts 278°
2026-05-09 10:57 48.77941 2.27607 25321 ft 440 kts 278°
2026-05-09 10:57 48.78448 2.23021 25853 ft 441 kts 278°
2026-05-09 10:57 48.78947 2.18414 26390 ft 442 kts 278°
2026-05-09 10:58 48.79437 2.13785 26897 ft 444 kts 278°
2026-05-09 10:58 48.79912 2.09200 27366 ft 445 kts 278°
2026-05-09 10:58 48.80389 2.04536 27829 ft 448 kts 278°
2026-05-09 10:58 48.80863 1.99850 28279 ft 449 kts 278°
2026-05-09 10:59 48.81335 1.95150 28716 ft 450 kts 278°
2026-05-09 10:59 48.81802 1.90475 29118 ft 452 kts 278°
2026-05-09 10:59 48.82272 1.85747 29600 ft 452 kts 279°
2026-05-09 10:59 48.82736 1.81058 30197 ft 447 kts 279°
2026-05-09 11:00 48.83194 1.76413 30727 ft 444 kts 279°
2026-05-09 11:00 48.83649 1.71780 31113 ft 443 kts 279°
2026-05-09 11:00 48.84098 1.67197 31463 ft 443 kts 279°
2026-05-09 11:00 48.84551 1.62552 31859 ft 442 kts 279°
2026-05-09 11:01 48.84998 1.57946 32270 ft 440 kts 279°
2026-05-09 11:01 48.85443 1.53347 32627 ft 439 kts 280°
2026-05-09 11:01 48.85885 1.48750 32976 ft 439 kts 280°
2026-05-09 11:01 48.86326 1.44165 33351 ft 437 kts 280°
2026-05-09 11:02 48.86756 1.39660 33731 ft 435 kts 280°
2026-05-09 11:02 48.87188 1.35108 33960 ft 437 kts 280°
2026-05-09 11:02 48.87623 1.30498 33990 ft 439 kts 280°
2026-05-09 11:03 48.88478 1.21393 34000 ft 434 kts 280°
2026-05-09 11:03 48.89321 1.12328 34005 ft 431 kts 280°
2026-05-09 11:04 48.90153 1.03318 34008 ft 430 kts 280°
2026-05-09 11:04 48.90985 0.94244 34015 ft 437 kts 280°
2026-05-09 11:05 48.91821 0.85050 34009 ft 445 kts 280°
2026-05-09 11:05 48.92667 0.75645 34013 ft 451 kts 280°
2026-05-09 11:06 48.93510 0.66170 34008 ft 456 kts 280°
2026-05-09 11:06 48.94352 0.56612 34011 ft 460 kts 279°
2026-05-09 11:07 48.95197 0.46930 34006 ft 462 kts 279°
2026-05-09 11:07 48.96037 0.37206 34009 ft 464 kts 279°
2026-05-09 11:08 48.96868 0.27501 34009 ft 465 kts 279°
2026-05-09 11:08 48.97695 0.17725 34011 ft 465 kts 279°
2026-05-09 11:09 48.98503 0.08100 34005 ft 465 kts 279°
2026-05-09 11:09 48.99314 -0.01682 34018 ft 465 kts 279°
2026-05-09 11:10 49.00115 -0.11435 34006 ft 465 kts 278°
2026-05-09 11:10 49.00905 -0.21165 34010 ft 465 kts 278°
2026-05-09 11:11 49.01691 -0.30932 34017 ft 465 kts 278°
2026-05-09 11:11 49.02469 -0.40722 34013 ft 465 kts 278°
2026-05-09 11:12 49.03235 -0.50468 34012 ft 465 kts 278°
2026-05-09 11:12 49.03998 -0.60286 34018 ft 465 kts 277°
2026-05-09 11:13 49.04754 -0.70111 34020 ft 466 kts 277°
2026-05-09 11:13 49.05497 -0.79882 34013 ft 466 kts 277°
2026-05-09 11:14 49.06232 -0.89670 34011 ft 467 kts 277°
2026-05-09 11:14 49.06964 -0.99513 34018 ft 467 kts 277°
2026-05-09 11:15 49.07691 -1.09395 34019 ft 468 kts 277°
2026-05-09 11:15 49.08508 -1.19197 34021 ft 467 kts 281°
2026-05-09 11:16 49.10047 -1.28868 34010 ft 468 kts 284°
2026-05-09 11:16 49.11649 -1.38531 34016 ft 469 kts 283°
2026-05-09 11:17 49.13208 -1.48145 34014 ft 469 kts 283°
2026-05-09 11:17 49.14760 -1.57854 34012 ft 470 kts 283°
2026-05-09 11:18 49.16297 -1.67546 34011 ft 471 kts 283°
2026-05-09 11:18 49.17830 -1.77254 34014 ft 471 kts 282°
2026-05-09 11:19 49.19105 -1.85374 34016 ft 472 kts 282°
2026-05-09 11:19 49.20637 -1.95175 34022 ft 473 kts 282°
2026-05-09 11:20 49.22164 -2.04999 34020 ft 474 kts 282°
2026-05-09 11:20 49.23792 -2.14746 34021 ft 475 kts 283°
2026-05-09 11:21 49.25503 -2.24560 34019 ft 476 kts 283°
2026-05-09 11:21 49.27190 -2.34345 34021 ft 477 kts 283°
2026-05-09 11:22 49.28865 -2.44207 34015 ft 477 kts 283°
2026-05-09 11:22 49.30514 -2.54009 34025 ft 478 kts 283°
2026-05-09 11:23 49.32171 -2.63916 34026 ft 478 kts 283°
2026-05-09 11:23 49.33809 -2.73763 34012 ft 479 kts 282°
2026-05-09 11:24 49.35451 -2.83693 34019 ft 479 kts 282°
2026-05-09 11:24 49.37083 -2.93611 34020 ft 479 kts 282°
2026-05-09 11:25 49.38694 -3.03470 34018 ft 479 kts 282°
2026-05-09 11:25 49.40310 -3.13408 34026 ft 479 kts 282°
2026-05-09 11:26 49.41922 -3.23386 34022 ft 480 kts 282°
2026-05-09 11:26 49.43512 -3.33290 34025 ft 480 kts 282°
2026-05-09 11:27 49.45103 -3.43252 34027 ft 480 kts 282°
2026-05-09 11:27 49.46692 -3.53265 34026 ft 480 kts 282°
2026-05-09 11:28 49.48258 -3.63196 34024 ft 480 kts 281°
2026-05-09 11:28 49.49826 -3.73199 34025 ft 481 kts 281°
2026-05-09 11:29 49.51380 -3.83172 34030 ft 481 kts 281°
2026-05-09 11:29 49.52935 -3.93217 34029 ft 481 kts 281°
2026-05-09 11:30 49.54476 -4.03230 34027 ft 482 kts 281°
2026-05-09 11:30 49.56020 -4.13326 34026 ft 483 kts 281°
2026-05-09 11:31 49.57542 -4.23338 34030 ft 483 kts 281°
2026-05-09 11:31 49.59278 -4.33368 34037 ft 486 kts 287°
2026-05-09 11:32 49.62009 -4.42961 34038 ft 489 kts 293°
2026-05-09 11:32 49.64991 -4.52343 34080 ft 492 kts 293°
2026-05-09 11:33 49.68004 -4.61919 34046 ft 498 kts 293°
2026-05-09 11:33 49.72524 -4.76510 34044 ft 505 kts 293°
2026-05-09 11:34 49.75540 -4.86324 34043 ft 508 kts 293°
2026-05-09 11:34 49.78576 -4.96242 34040 ft 510 kts 293°
2026-05-09 11:35 49.81618 -5.06213 34041 ft 511 kts 293°
2026-05-09 11:35 49.84633 -5.16137 34044 ft 511 kts 293°
2026-05-09 11:36 49.87656 -5.26127 34044 ft 511 kts 292°
2026-05-09 11:36 49.90673 -5.36140 34040 ft 510 kts 292°
2026-05-09 11:37 49.93648 -5.46053 34045 ft 509 kts 292°
2026-05-09 11:37 49.96633 -5.56041 34044 ft 508 kts 293°
2026-05-09 11:38 49.99606 -5.66031 34046 ft 508 kts 293°
2026-05-09 11:38 50.02546 -5.75947 34046 ft 508 kts 293°
2026-05-09 11:39 50.05498 -5.85948 34038 ft 508 kts 293°
2026-05-09 11:40 50.09894 -6.00917 34044 ft 508 kts 293°
2026-05-09 11:40 50.12828 -6.10962 34048 ft 508 kts 292°
2026-05-09 11:41 50.15745 -6.20989 34045 ft 508 kts 292°
2026-05-09 11:41 50.18647 -6.31003 34051 ft 509 kts 292°
2026-05-09 11:42 50.21560 -6.41101 34051 ft 509 kts 292°
2026-05-09 11:42 50.24449 -6.51154 34054 ft 510 kts 292°
2026-05-09 11:43 50.27353 -6.61311 34056 ft 510 kts 292°
2026-05-09 11:43 50.30247 -6.71464 34056 ft 511 kts 292°
2026-05-09 11:44 50.33117 -6.81587 34058 ft 512 kts 292°
2026-05-09 11:44 50.36004 -6.91810 34061 ft 512 kts 291°
2026-05-09 11:45 50.38862 -7.01968 34074 ft 512 kts 291°
2026-05-09 11:45 50.41734 -7.12232 34072 ft 513 kts 291°
2026-05-09 11:46 50.44585 -7.22459 34073 ft 513 kts 292°
2026-05-09 11:46 50.47440 -7.32741 34078 ft 512 kts 292°
2026-05-09 11:47 50.50283 -7.43029 34081 ft 513 kts 292°
2026-05-09 11:47 50.53102 -7.53276 34089 ft 513 kts 292°
2026-05-09 11:48 50.55935 -7.63619 34087 ft 514 kts 292°
2026-05-09 11:48 50.58739 -7.73903 34090 ft 514 kts 292°
2026-05-09 11:49 50.61553 -7.84267 34094 ft 514 kts 292°
2026-05-09 11:49 50.64343 -7.94582 34092 ft 512 kts 292°
2026-05-09 11:50 50.67010 -8.04988 34106 ft 510 kts 289°
2026-05-09 11:50 50.69391 -8.15503 34099 ft 508 kts 288°
2026-05-09 11:51 50.71694 -8.25924 34091 ft 500 kts 289°
2026-05-09 11:51 50.74005 -8.36320 34116 ft 503 kts 289°
2026-05-09 11:52 50.76322 -8.46710 34105 ft 503 kts 289°
2026-05-09 11:52 50.78647 -8.57157 34124 ft 505 kts 289°
2026-05-09 11:53 50.80975 -8.67669 34119 ft 505 kts 289°
2026-05-09 11:53 50.83282 -8.78147 34119 ft 503 kts 289°
2026-05-09 11:54 50.85563 -8.88566 34131 ft 505 kts 289°
2026-05-09 11:54 50.87859 -8.99110 34120 ft 503 kts 289°
2026-05-09 11:55 50.90120 -9.09543 34138 ft 503 kts 289°
2026-05-09 11:56 50.96877 -9.41038 34129 ft 501 kts 289°
2026-05-09 11:57 50.99093 -9.51474 34152 ft 502 kts 289°
2026-05-09 11:57 51.01320 -9.62014 34145 ft 503 kts 288°
2026-05-09 11:58 51.03527 -9.72519 34133 ft 499 kts 288°
2026-05-09 11:58 51.05705 -9.82939 34160 ft 500 kts 288°
2026-05-09 11:59 51.07897 -9.93476 34138 ft 498 kts 288°
2026-05-09 11:59 51.10033 -10.03802 34167 ft 500 kts 288°
2026-05-09 12:00 51.12207 -10.14370 34160 ft 503 kts 288°